Weather History for Doha, Qatar

Change the Weather History Date:

Thursday, February 13, 2014

  Actual Average Record
Temperature  
Mean Temperature 63 °F -  
Max Temperature 71 °F 76 °F 79 °F (2013)
Min Temperature 55 °F 59 °F 55 °F (1997)
Degree Days  
Heating Degree Days 2    
Growing Degree Days 13 (Base 50)    
Moisture  
Dew Point 48 °F    
Average Humidity 56    
Maximum Humidity 73    
Minimum Humidity 32    
Precipitation  
Precipitation 0.00 in 0.02 in - ()
Sea Level Pressure  
Sea Level Pressure 30.03 in    
Wind  
Wind Speed 8 mph ()    
Max Wind Speed 20 mph    
Max Gust Speed -    
Visibility 6.5 miles    
Events      
Averages and records for this station are not official NWS values.
T = Trace of Precipitation, MM = Missing Value Source: Averaged Metar Reports

Daily Weather History Graph

Daily Weather History Graph

Search for Another Location

Airport:

Trip Planner

Search our weather history database for the weather conditions in past years. The results will help you decide how hot, cold, wet, or windy it might be!

Date:

Astronomy

Feb. 13, 2014 Rise Set
Actual Time 6:09 AM AST 5:26 PM AST
Civil Twilight 5:46 AM AST 5:49 PM AST
Nautical Twilight 5:19 AM AST 6:16 PM AST
Astronomical Twilight 4:52 AM AST 6:43 PM AST
Moon 4:14 PM AST (2/13) 4:46 AM AST (2/13)
Length of Visible Light 12h 03m
Length of Day
11h 16m
Waxing Gibbous, 98% of the Moon is Illuminated
Feb 13
Waxing Gibbous
Feb 15
Full
Feb 22
Last Quarter
Mar 1
New
Mar 8
First Quarter

Hourly Weather History & Observations

Time (AST) Temp. Dew Point Humidity Pressure Visibility Wind Dir Wind Speed Gust Speed Precip Events Conditions
12:00 AM 60 °F 42 °F 40% 29.98 in 9 mi WNW 3.5 mph - -  
12:00 AM 59.0 °F 42.8 °F 55% 29.98 in - WNW 3.5 mph - N/A   Clear
12:30 AM 59.0 °F 42.8 °F 55% 29.95 in - West 3.5 mph - N/A   Clear
1:00 AM 59.0 °F 44.6 °F 59% 29.95 in - West 3.5 mph - N/A   Clear
1:30 AM 57.2 °F 42.8 °F 59% 29.95 in - West 4.6 mph - N/A   Clear
2:00 AM 57.2 °F 44.6 °F 63% 29.95 in - WSW 4.6 mph - N/A   Clear
2:30 AM 57.2 °F 42.8 °F 59% 29.95 in - West 3.5 mph - N/A   Clear
3:00 AM 57 °F 42 °F 46% 29.96 in 9 mi West 3.5 mph - -  
3:00 AM 57.2 °F 42.8 °F 59% 29.95 in - West 3.5 mph - N/A   Clear
3:30 AM 57.2 °F 42.8 °F 59% 29.95 in - West 4.6 mph - N/A   Clear
4:00 AM 57.2 °F 44.6 °F 63% 29.95 in - West 5.8 mph - N/A   Clear
4:30 AM 57.2 °F 44.6 °F 63% 29.98 in - West 4.6 mph - N/A   Clear
5:00 AM 57.2 °F 44.6 °F 63% 29.98 in - WNW 5.8 mph - N/A   Clear
5:30 AM 57.2 °F 44.6 °F 63% 29.98 in - West 3.5 mph - N/A   Clear
6:00 AM 58 °F 45 °F 51% 30.00 in 6 mi WNW 6.9 mph - -  
6:00 AM 57.2 °F 44.6 °F 63% 29.98 in - WNW 6.9 mph - N/A   Clear
6:30 AM 57.2 °F 44.6 °F 63% 30.01 in 5.6 mi WNW 6.9 mph - N/A   Unknown
7:00 AM 59.0 °F 44.6 °F 59% 30.01 in - WNW 6.9 mph - N/A   Clear
7:30 AM 59.0 °F 42.8 °F 55% 30.01 in - WNW 10.4 mph - N/A   Clear
8:00 AM 60.8 °F 44.6 °F 55% 30.01 in - NW 11.5 mph - N/A   Clear
8:30 AM 62.6 °F 44.6 °F 52% 30.04 in - NW 10.4 mph - N/A   Clear
9:00 AM 63 °F 46 °F 43% 30.05 in 6 mi NW 11.5 mph - -  
9:00 AM 62.6 °F 46.4 °F 55% 30.04 in - NW 11.5 mph - N/A   Clear
10:00 AM 68.0 °F 48.2 °F 49% 30.04 in - NNW 12.7 mph - N/A   Clear
10:30 AM 68.0 °F 50.0 °F 52% 30.04 in - NNW 11.5 mph - N/A   Clear
11:00 AM 69.8 °F 48.2 °F 46% 30.04 in 6.2 mi NNW 17.3 mph - N/A   Partly Cloudy
11:30 AM 71.6 °F 48.2 °F 43% 30.04 in 6.2 mi North 17.3 mph - N/A   Partly Cloudy
12:00 PM 71 °F 51 °F 38% 30.04 in 7 mi North 18.4 mph - -   Scattered Clouds
12:00 PM 71.6 °F 50.0 °F 46% 30.04 in 6.2 mi North 18.4 mph - N/A   Partly Cloudy
12:30 PM 71.6 °F 46.4 °F 41% 30.01 in 6.2 mi North 17.3 mph - N/A   Partly Cloudy
1:00 PM 71.6 °F 44.6 °F 38% 30.01 in 6.2 mi North 18.4 mph - N/A   Partly Cloudy
1:30 PM 71.6 °F 44.6 °F 38% 30.01 in 6.2 mi North 19.6 mph - N/A   Partly Cloudy
2:00 PM 71.6 °F 46.4 °F 41% 30.01 in 6.2 mi North 18.4 mph - N/A   Partly Cloudy
2:30 PM 71.6 °F 46.4 °F 41% 30.04 in 6.2 mi North 18.4 mph - N/A   Partly Cloudy
3:00 PM 70 °F 46 °F 32% 30.04 in 7 mi North 19.6 mph - -   Scattered Clouds
3:00 PM 69.8 °F 46.4 °F 43% 30.04 in 6.2 mi North 19.6 mph - N/A   Partly Cloudy
3:30 PM 69.8 °F 50.0 °F 49% 30.04 in 6.2 mi North 17.3 mph - N/A   Partly Cloudy
4:00 PM 68.0 °F 51.8 °F 56% 30.04 in 6.2 mi North 17.3 mph - N/A   Partly Cloudy
4:30 PM 68.0 °F 51.8 °F 56% 30.04 in 6.2 mi North 17.3 mph - N/A   Partly Cloudy
5:00 PM 66.2 °F 53.6 °F 64% 30.04 in 6.2 mi NNE 12.7 mph - N/A   Partly Cloudy
5:30 PM 66.2 °F 55.4 °F 68% 30.06 in 6.2 mi NNE 11.5 mph - N/A   Partly Cloudy
6:00 PM 66 °F 55 °F 58% 30.08 in 6 mi North 11.5 mph - -  
6:00 PM 66.2 °F 55.4 °F 68% 30.06 in - North 11.5 mph - N/A   Clear
6:30 PM 66.2 °F 55.4 °F 68% 30.06 in - North 9.2 mph - N/A   Clear
7:00 PM 66.2 °F 55.4 °F 68% 30.09 in - North 9.2 mph - N/A   Clear
7:30 PM 66.2 °F 55.4 °F 68% 30.09 in - North 9.2 mph - N/A   Clear
8:00 PM 64.4 °F 55.4 °F 73% 30.09 in - North 6.9 mph - N/A   Clear
8:30 PM 64.4 °F 55.4 °F 73% 30.12 in - NNW 6.9 mph - N/A   Clear
9:00 PM 64.4 °F 51.8 °F 64% 30.12 in - NNW 8.1 mph - N/A   Clear
10:00 PM 64.4 °F 51.8 °F 64% 30.12 in - NW 5.8 mph - N/A   Clear
10:30 PM 64.4 °F 53.6 °F 68% 30.12 in - NW 5.8 mph - N/A   Clear
11:00 PM 64.4 °F 53.6 °F 68% 30.09 in - NNW 9.2 mph - N/A   Clear
11:30 PM 64.4 °F 53.6 °F 68% 30.09 in - NNW 9.2 mph - N/A   Clear